| time (UTC) | temp F | wind direction | speed knots | gust knots | rain 1hr in | rain 24hr in | rain mn in | humidity % | barometer mb |
| 20260902070019 | 59 | 261 | 1.7 | 3.5 | 0.00 | 0.00 | 0.00 | 82 | 1018.3 |
| 20260902064512 | 59 | 265 | 0.9 | 3.5 | 0.00 | 0.00 | 0.00 | 84 | 1018.2 |
| 20260902063011 | 57 | 273 | 2.6 | 6.1 | 0.00 | 0.00 | 0.00 | 86 | 1017.9 |
| 20260902061522 | 56 | 324 | 2.6 | 5.2 | 0.00 | 0.00 | 0.00 | 88 | 1017.9 |
| 20260902060005 | 55 | 355 | 2.6 | 4.3 | 0.00 | 0.00 | 0.00 | 90 | 1017.9 |
| 20260902054505 | 55 | 5 | 0.9 | 2.6 | 0.00 | 0.00 | 0.00 | 91 | 1017.7 |
| 20260902053003 | 55 | 9 | 0.9 | 2.6 | 0.00 | 0.00 | 0.00 | 92 | 1017.6 |
| 20260902051601 | 55 | 5 | 0.9 | 2.6 | 0.00 | 0.00 | 0.00 | 92 | 1017.3 |
| 20260902050058 | 55 | 5 | 0.9 | 1.7 | 0.00 | 0.00 | 0.00 | 92 | 1017.4 |
| 20260902044557 | 55 | 9 | 1.7 | 2.6 | 0.00 | 0.00 | 0.00 | 92 | 1017.4 |
| 20260902043102 | 55 | 5 | 0.9 | 2.6 | 0.00 | 0.00 | 0.00 | 92 | 1017.5 |
| 20260902041556 | 55 | 9 | 0.0 | 0.0 | 0.00 | 0.00 | 0.00 | 92 | 1017.5 |
| 20260902040055 | 55 | 9 | 0.0 | 0.0 | 0.00 | 0.00 | 0.00 | 92 | 1017.6 |
| 20260902034558 | 55 | 9 | 0.0 | 0.0 | 0.00 | 0.00 | 0.00 | 92 | 1017.6 |
| 20260902033057 | 55 | 5 | 0.0 | 0.0 | 0.00 | 0.00 | 0.00 | 92 | 1017.5 |
| 20260902031553 | 55 | 5 | 0.0 | 0.0 | 0.00 | 0.00 | 0.00 | 91 | 1017.5 |
| 20260902030051 | 55 | 5 | 0.0 | 0.9 | 0.00 | 0.00 | 0.00 | 91 | 1017.6 |
| 20260902024551 | 55 | 9 | 0.9 | 2.6 | 0.00 | 0.00 | 0.00 | 91 | 1017.8 |
| 20260902023105 | 55 | 9 | 0.9 | 2.6 | 0.00 | 0.00 | 0.00 | 91 | 1018.0 |
| 20260902021549 | 55 | 5 | 0.9 | 2.6 | 0.00 | 0.00 | 0.00 | 90 | 1018.2 |
| 20260902020047 | 55 | 9 | 0.9 | 2.6 | 0.00 | 0.00 | 0.00 | 90 | 1018.0 |
| 20260902014547 | 55 | 9 | 0.9 | 2.6 | 0.00 | 0.00 | 0.00 | 90 | 1017.8 |
| 20260902013053 | 55 | 9 | 0.9 | 2.6 | 0.00 | 0.00 | 0.00 | 90 | 1017.9 |
| 20260902011545 | 56 | 9 | 1.7 | 2.6 | 0.00 | 0.00 | 0.00 | 89 | 1017.9 |
| 20260902010042 | 56 | 9 | 0.9 | 2.6 | 0.00 | 0.00 | 0.00 | 89 | 1017.8 |
| 20260902004542 | 56 | 9 | 1.7 | 3.5 | 0.00 | 0.00 | 0.00 | 89 | 1017.8 |
| 20260902003042 | 56 | 9 | 1.7 | 2.6 | 0.00 | 0.00 | 0.00 | 89 | 1017.9 |
| 20260902001554 | 56 | 9 | 1.7 | 3.5 | 0.00 | 0.00 | 0.00 | 89 | 1017.9 |
| 20260902000040 | 56 | 9 | 1.7 | 3.5 | 0.00 | 0.00 | 0.00 | 88 | 1017.9 |
| 20260901234537 | 57 | 9 | 0.9 | 2.6 | 0.00 | 0.00 | 0.00 | 88 | 1017.7 |
| 20260901233036 | 57 | 9 | 0.9 | 2.6 | 0.00 | 0.00 | 0.00 | 88 | 1017.8 |
| 20260901231533 | 57 | 9 | 0.9 | 2.6 | 0.00 | 0.00 | 0.00 | 87 | 1018.0 |
| 20260901230031 | 58 | 9 | 0.9 | 1.7 | 0.00 | 0.00 | 0.00 | 86 | 1018.1 |
| 20260901224529 | 58 | 9 | 0.9 | 2.6 | 0.00 | 0.01 | 0.00 | 86 | 1018.5 |
| 20260901223028 | 58 | 9 | 1.7 | 2.6 | 0.00 | 0.01 | 0.00 | 85 | 1018.5 |
| 20260901221525 | 59 | 9 | 0.9 | 2.6 | 0.00 | 0.01 | 0.00 | 85 | 1018.4 |
| 20260901220022 | 59 | 9 | 0.9 | 1.7 | 0.00 | 0.01 | 0.00 | 83 | 1018.3 |
| 20260901214521 | 59 | 9 | 0.0 | 1.7 | 0.00 | 0.01 | 0.01 | 82 | 1018.3 |
| 20260901213020 | 60 | 9 | 0.9 | 2.6 | 0.00 | 0.01 | 0.01 | 82 | 1018.2 |
| 20260901211520 | 60 | 9 | 0.9 | 2.6 | 0.00 | 0.01 | 0.01 | 82 | 1018.2 |
| 20260901210018 | 60 | 9 | 0.9 | 1.7 | 0.00 | 0.01 | 0.01 | 82 | 1018.2 |
| 20260901204518 | 61 | 9 | 0.0 | 1.7 | 0.00 | 0.01 | 0.01 | 79 | 1018.2 |
| 20260901203023 | 62 | 9 | 0.9 | 2.6 | 0.00 | 0.01 | 0.01 | 78 | 1018.1 |
| 20260901201517 | 62 | 9 | 0.0 | 0.0 | 0.00 | 0.01 | 0.01 | 77 | 1018.1 |
| 20260901200016 | 63 | 9 | 0.0 | 0.0 | 0.00 | 0.01 | 0.01 | 76 | 1018.2 |
| 20260901194515 | 63 | 9 | 0.0 | 0.0 | 0.00 | 0.01 | 0.01 | 74 | 1018.3 |
| 20260901193016 | 64 | 9 | 0.0 | 0.0 | 0.00 | 0.01 | 0.01 | 74 | 1018.1 |
| 20260901191527 | 65 | 9 | 0.0 | 0.0 | 0.00 | 0.01 | 0.01 | 73 | 1018.1 |
| 20260901190015 | 65 | 9 | 0.0 | 0.9 | 0.00 | 0.01 | 0.01 | 71 | 1018.1 |
| 20260901184513 | 66 | 9 | 0.0 | 0.9 | 0.00 | 0.01 | 0.01 | 70 | 1018.0 |
| 20260901183011 | 67 | 9 | 0.0 | 0.9 | 0.00 | 0.01 | 0.01 | 68 | 1017.9 |
| 20260901181511 | 68 | 9 | 0.0 | 0.9 | 0.00 | 0.01 | 0.01 | 67 | 1017.8 |
| 20260901180013 | 69 | 9 | 0.0 | 0.0 | 0.00 | 0.01 | 0.01 | 66 | 1017.7 |
| 20260901174509 | 69 | 9 | 0.0 | 0.9 | 0.00 | 0.04 | 0.01 | 64 | 1017.7 |
| 20260901173016 | 70 | 9 | 0.0 | 1.7 | 0.00 | 0.04 | 0.01 | 63 | 1017.6 |
| 20260901171514 | 71 | 9 | 0.9 | 3.5 | 0.00 | 0.04 | 0.01 | 61 | 1017.5 |
| 20260901170008 | 73 | 240 | 0.9 | 1.7 | 0.00 | 0.04 | 0.01 | 57 | 1017.4 |
| 20260901164523 | 74 | 240 | 0.9 | 6.1 | 0.00 | 0.13 | 0.01 | 55 | 1017.4 |
| 20260901163007 | 75 | 242 | 1.7 | 4.3 | 0.00 | 0.13 | 0.01 | 53 | 1017.5 |
| 20260901161509 | 76 | 234 | 1.7 | 8.7 | 0.00 | 0.13 | 0.01 | 51 | 1017.5 |
| 20260901160006 | 76 | 86 | 1.7 | 7.8 | 0.00 | 0.13 | 0.01 | 52 | 1017.5 |
| 20260901154505 | 77 | 246 | 1.7 | 7.0 | 0.00 | 0.13 | 0.01 | 50 | 1017.4 |
| 20260901153002 | 77 | 242 | 2.6 | 6.1 | 0.00 | 0.13 | 0.01 | 52 | 1017.4 |
| 20260901151559 | 76 | 268 | 0.9 | 7.0 | 0.00 | 0.13 | 0.01 | 52 | 1017.5 |
| 20260901150059 | 74 | 238 | 1.7 | 7.0 | 0.00 | 0.13 | 0.01 | 56 | 1017.5 |
| 20260901144559 | 74 | 196 | 1.7 | 7.0 | 0.00 | 0.35 | 0.01 | 54 | 1017.5 |
| 20260901143059 | 75 | 313 | 1.7 | 9.6 | 0.00 | 0.35 | 0.01 | 54 | 1017.6 |
| 20260901141555 | 74 | 229 | 1.7 | 7.8 | 0.00 | 0.35 | 0.01 | 57 | 1017.6 |
| 20260901140057 | 74 | 272 | 0.9 | 8.7 | 0.00 | 0.35 | 0.01 | 62 | 1017.7 |
| 20260901134553 | 73 | 234 | 2.6 | 7.0 | 0.00 | 0.35 | 0.01 | 61 | 1017.6 |
| 20260901133053 | 72 | 212 | 0.9 | 2.6 | 0.00 | 0.35 | 0.01 | 64 | 1017.7 |
| 20260901131552 | 72 | 212 | 1.7 | 3.5 | 0.00 | 0.35 | 0.01 | 63 | 1017.8 |
| 20260901130059 | 73 | 161 | 2.6 | 5.2 | 0.00 | 0.35 | 0.01 | 60 | 1017.8 |
| 20260901124551 | 74 | 17 | 1.7 | 7.0 | 0.00 | 0.49 | 0.01 | 60 | 1017.6 |
| 20260901123050 | 74 | 229 | 1.7 | 5.2 | 0.00 | 0.49 | 0.01 | 60 | 1017.7 |
| 20260901121549 | 74 | 274 | 0.9 | 2.6 | 0.00 | 0.49 | 0.01 | 60 | 1017.6 |
| 20260901120048 | 74 | 284 | 0.0 | 2.6 | 0.00 | 0.49 | 0.01 | 61 | 1017.8 |
| 20260901114622 | 73 | 246 | 0.0 | 10.4 | 0.00 | 0.49 | 0.01 | 63 | 1017.7 |
| 20260901113048 | 73 | 237 | 2.6 | 7.0 | 0.00 | 0.49 | 0.01 | 63 | 1017.8 |
| 20260901111550 | 74 | 194 | 0.9 | 4.3 | 0.00 | 0.49 | 0.01 | 62 | 1017.7 |
| 20260901110045 | 74 | 241 | 1.7 | 6.1 | 0.00 | 0.49 | 0.01 | 59 | 1017.7 |
| 20260901104543 | 73 | 234 | 2.6 | 7.8 | 0.00 | 0.50 | 0.01 | 60 | 1017.6 |
| 20260901103042 | 73 | 246 | 5.2 | 10.4 | 0.00 | 0.50 | 0.01 | 60 | 1017.6 |
| 20260901101538 | 71 | 261 | 3.5 | 11.3 | 0.00 | 0.50 | 0.01 | 65 | 1017.7 |
| 20260901100031 | 70 | 225 | 4.3 | 9.6 | 0.00 | 0.50 | 0.01 | 69 | 1017.7 |
| 20260901094537 | 69 | 229 | 2.6 | 7.8 | 0.00 | 0.50 | 0.01 | 71 | 1017.7 |
| 20260901093042 | 68 | 198 | 1.7 | 4.3 | 0.00 | 0.50 | 0.01 | 74 | 1017.9 |
| 20260901091543 | 68 | 196 | 3.5 | 9.6 | 0.00 | 0.50 | 0.01 | 72 | 1017.9 |
| 20260901090046 | 69 | 213 | 2.6 | 5.2 | 0.00 | 0.50 | 0.01 | 75 | 1017.8 |
| 20260901084542 | 67 | 227 | 1.7 | 4.3 | 0.00 | 0.50 | 0.01 | 78 | 1017.7 |
| 20260901083031 | 64 | 232 | 0.0 | 2.6 | 0.00 | 0.50 | 0.01 | 85 | 1017.7 |
| 20260901081528 | 63 | 232 | 0.9 | 3.5 | 0.00 | 0.50 | 0.01 | 85 | 1017.7 |
| 20260901080025 | 62 | 232 | 0.9 | 3.5 | 0.00 | 0.50 | 0.01 | 86 | 1017.6 |
| 20260901074521 | 61 | 232 | 0.9 | 3.5 | 0.00 | 0.50 | 0.01 | 88 | 1017.5 |
| 20260901073020 | 60 | 240 | 0.9 | 2.6 | 0.00 | 0.50 | 0.01 | 92 | 1017.6 |
| 20260901071513 | 58 | 240 | 0.0 | 1.7 | 0.00 | 0.50 | 0.01 | 92 | 1017.6 |